Location: Ausseing
(43.1523°N, 1.0182°E)
Time: 18:51:48
(UTC+00:00)

Daily predictions for brighter satellites

Satellite Brightness Start Highest point End
(mag) Time Altitude Azimuth Time Altitude Azimuth Time Altitude Azimuth
Meteor 2-8 Rocket 4.5 19:32:16 10° N 19:38:25 71° E 19:44:28 10° SSE
Cosmos 1980 Rocket 3.5 19:33:13 10° NW 19:38:30 42° WSW 19:43:47 10° S
Cosmos 1842 Rocket 4.4 19:36:16 10° NNW 19:40:39 55° W 19:45:01 10° S
Cosmos 2221 3.6 19:36:42 10° NNW 19:40:54 49° W 19:45:05 10° SSW
Cosmos 1933 3.9 19:38:03 10° N 19:41:53 40° ENE 19:45:40 10° SSE
Cosmos 1689 Rocket 1.8 19:40:00 10° NNE 19:42:45 85° E 19:45:29 10° SSW
Cosmos 1782 4.0 19:40:23 10° NNE 19:43:44 25° ENE 19:47:03 10° SE
SL-27 R/B 3.9 19:44:20 10° SSE 19:47:03 21° E 19:49:48 10° NE
Cosmos 2333 Rocket 3.9 19:47:42 10° N 19:51:40 19° NE 19:55:37 10° E
BREEZE-M DEB (TANK) 2.3 19:49:16 10° WNW 19:51:55 70° NNE 19:58:07 10° ESE
Cosmos 2322 Rocket 2.4 19:48:45 10° NNW 19:54:18 57° ENE 19:59:48 10° SE
CZ-4 R/B 4.4 19:52:36 10° SW 19:55:00 15° W 19:57:25 10° NW
IRS-1A Rocket 4.3 19:50:21 10° SSE 19:55:47 64° ENE 20:01:14 10° N
BREEZE-M R/B 4.3 19:52:45 10° SSW 19:58:25 23° SSE 20:01:30 10° E
Cosmos 923 Rocket 4.0 19:53:26 10° SSW 19:58:46 84° ESE 20:04:08 10° NNE
OBJECT-B 1.9 19:56:08 10° S 19:59:13 45° W 20:02:21 10° NNW
SL-12 R/B (Aux Motor) 4.4 20:00:55 10° WNW 20:03:06 64° SSW 20:07:23 12° ESE
BREEZE-M DEB (TANK) 3.5 20:01:18 10° WNW 20:04:24 84° NNE 20:12:58 12° ESE
SJ-6B 3.5 20:02:14 10° S 20:05:52 51° W 20:09:34 10° NNW
Cosmos 2219 Rocket 3.9 20:01:53 10° N 20:05:54 20° NE 20:09:52 10° E
Meteor 2-15 4.5 20:00:04 10° N 20:06:10 90° SE 20:12:13 10° S
Resurs 1-3 3.6 20:01:55 10° SSE 20:06:18 81° ENE 20:10:42 10° N
USA 276 4.2 20:06:54 10° W 20:09:15 19° SW 20:11:33 10° S
Cosmos 2056 Rocket 4.0 20:06:05 10° N 20:11:12 46° ENE 20:15:28 14° SE
ATLAS 5 CENTAUR R/B 3.9 20:07:29 10° NNW 20:11:40 22° NE 20:16:23 10° E
USA 186 4.1 20:11:10 10° SW 20:13:15 19° W 20:15:15 10° NW
SPOT 1/Viking Rocket 4.2 20:14:27 14° SE 20:18:33 40° ENE 20:23:24 10° N
Cosmos 1092 Rocket 4.0 20:13:59 10° S 20:20:17 89° E 20:26:40 10° N
NOSS 2-1 (E) 2.9 20:17:33 10° SW 20:20:52 79° NW 20:24:12 10° NE
Cosmos 2026 Rocket 4.0 20:17:39 10° S 20:23:57 78° E 20:30:11 10° N
IGS 5A 3.4 20:23:13 12° SSE 20:26:58 78° ENE 20:31:08 10° N
CZ-2C R/B 4.3 20:23:25 10° NNE 20:27:31 34° E 20:30:27 16° SSE
SL-16 R/B 2.6 20:22:15 10° NNW 20:27:50 61° WSW 20:33:24 10° S
GP-B 3.3 20:25:59 10° NNE 20:30:19 51° E 20:33:39 16° SSE
Cosmos 1680 Rocket 3.9 20:26:00 10° SSW 20:31:14 68° WNW 20:36:29 10° NNE
Meteor 1-26 Rocket 4.4 20:26:08 10° NNW 20:31:59 78° W 20:37:36 10° S
Cosmos 1151 Rocket 3.0 20:28:21 10° N 20:32:44 71° E 20:36:06 17° SSE
Cosmos 2112 Rocket 4.2 20:27:46 10° SSW 20:33:03 76° WNW 20:38:20 10° NNE
Lacrosse 5 3.2 20:33:37 19° ESE 20:33:37 19° ESE 20:36:46 10° ENE
Cosmos 1371 Rocket 4.0 20:28:09 10° NNW 20:33:34 80° ENE 20:37:42 17° SSE
NOSS 3-1 (C) 4.4 20:27:02 10° NNW 20:34:23 59° NE 20:40:55 18° ESE
Okean 3 Rocket 3.5 20:31:18 10° S 20:35:47 73° E 20:40:18 10° NNE
Cosmos 1271 Rocket 3.7 20:32:50 10° NNW 20:36:43 48° W 20:40:33 10° S
MetOp-B 4.1 20:36:35 17° SSE 20:40:43 70° ENE 20:46:04 10° N
ERS-2 2.6 20:38:54 10° N 20:42:30 60° WNW 20:46:04 10° SSW
COSMOS 2487 3.3 20:45:40 28° E 20:45:40 28° E 20:48:29 10° NE
Cosmos 2237 4.3 20:40:22 10° NNW 20:46:05 75° WSW 20:50:20 18° SSE
Cosmos 1515 Rocket 4.0 20:45:46 10° N 20:50:00 44° ENE 20:51:44 29° SE
COSMOS 2428 3.7 20:45:49 10° N 20:50:57 33° NE 20:53:52 21° ESE
COSMOS 2455 2.8 20:45:33 10° SSW 20:51:25 60° ESE 20:57:20 10° NE
USA 229 DEB 4.5 20:45:27 10° NNW 20:52:30 48° NE 20:57:36 21° ESE
USA 229 4.5 20:45:33 10° NNW 20:52:35 48° NE 20:57:42 20° ESE
Terra 3.1 20:54:31 22° E 20:56:08 27° ENE 21:00:05 10° N
Ariane Rocket 4.2 20:52:06 10° SSW 20:56:49 39° W 21:01:33 10° NNW
Cosmos 1809 Rocket 4.5 20:51:06 10° S 20:57:15 86° W 21:03:25 10° N
Cosmos 292 Rocket 3.7 20:52:52 10° NNW 20:57:40 74° ENE 20:59:58 30° SSE
Cosmos 1328 Rocket 3.6 20:54:37 10° N 20:59:04 80° W 21:01:43 24° S
Cosmos 2360 Rocket 2.3 20:55:30 10° NNW 21:01:08 73° WSW 21:04:37 24° SSE
Cosmos 1766 Rocket 4.2 20:58:07 10° SSW 21:02:23 54° W 21:06:41 10° N
SPOT 3 Rocket 3.9 20:59:52 17° S 21:03:50 64° WSW 21:09:02 10° NNW
Cosmos 972 Rocket 4.3 21:01:58 28° SSE 21:04:08 44° ESE 21:08:51 10° NNE
Cosmos 1174 3.2 21:03:31 10° NW 21:06:30 68° WSW 21:06:57 56° S
Resurs 01 Rocket 2.8 21:05:14 13° SSW 21:08:53 39° W 21:13:04 10° NNW
Cosmos 2266 Rocket 4.1 21:09:42 27° SSE 21:13:01 58° E 21:19:10 10° NNE
NOSS 3-1 (A) 4.3 21:05:48 10° NNW 21:13:15 62° NE 21:18:16 27° ESE
Meteor 2-6 Rocket 4.2 21:07:56 10° NNW 21:13:19 76° W 21:16:31 25° S
Cosmos 1420 Rocket 4.1 21:11:16 10° NNW 21:16:34 73° WSW 21:19:08 31° S
Cosmos 1812 3.4 21:13:38 10° NNW 21:17:23 49° W 21:19:06 28° SSW
Cosmos 1553 Rocket 4.1 21:12:23 10° NNW 21:18:27 71° W 21:22:39 21° S
Cosmos 1862 3.9 21:16:10 18° SSW 21:18:56 55° W 21:22:51 10° N
Meteor 2-21 Rocket 4.4 21:16:32 16° S 21:21:35 87° W 21:27:46 10° N
ERS-1 Rocket 3.0 21:20:13 40° SE 21:21:56 66° ENE 21:26:56 10° N
Cosmos 2228 Rocket 3.5 21:22:10 10° N 21:26:25 43° ENE 21:26:53 42° E
Cosmos 2297 Rocket 3.7 21:31:26 20° E 21:31:26 20° E 21:34:24 10° NE
Cosmos 2285 Rocket 4.1 21:24:26 10° NNW 21:30:42 65° ENE 21:33:03 39° SE
Cosmos 1805 Rocket 3.9 21:31:35 44° E 21:31:35 44° E 21:35:47 10° NNE
SPOT 5 2.5 21:31:58 56° SSE 21:32:53 83° ENE 21:37:24 10° NNW
ARIANE 5 R/B 2.6 21:31:52 49° S 21:33:02 81° WSW 21:37:29 10° NNW
BREEZE-M DEB (TANK) 3.0 21:28:07 10° WNW 21:33:49 46° N 21:34:36 36° NE
Cosmos 2315 Rocket 4.2 21:29:14 10° N 21:35:31 59° ENE 21:37:36 40° SE
Cosmos 2333 Rocket 2.2 21:30:57 10° NNW 21:36:37 78° WSW 21:38:33 43° S
Cosmos 883 Rocket 4.5 21:30:44 10° N 21:37:01 71° E 21:39:17 41° SSE
Cosmos 2322 Rocket 4.2 21:33:45 10° NW 21:37:51 21° W 21:41:54 10° SSW
Cosmos 2237 Rocket 3.4 21:33:49 10° N 21:38:47 30° NE 21:40:34 25° E
Cosmos 2322 3.7 21:33:51 10° NNW 21:39:36 79° WSW 21:41:30 44° S
Meteor 1-20 Rocket 4.5 21:40:22 44° ESE 21:41:14 48° E 21:46:44 10° NNE
Cosmos 1500 Rocket 3.6 21:40:12 48° SSW 21:41:23 78° W 21:45:52 10° N
Cosmos 1452 Rocket 3.4 21:37:51 10° NNW 21:43:08 84° WSW 21:44:29 52° S
Cosmos 2227 Rocket 3.9 21:44:50 18° ENE 21:44:50 18° ENE 21:47:16 10° NE
Cosmos 2219 Rocket 2.2 21:44:52 10° NNW 21:50:27 74° WSW 21:51:54 50° S
Sich 1 3.3 21:53:27 55° ENE 21:53:27 55° ENE 21:57:16 10° NNE
S3M 4.5 21:46:45 10° NNW 21:53:01 58° W 21:56:13 29° SSW
Spot 2 Rocket 4.4 21:54:15 30° SW 21:56:10 42° W 22:01:02 10° NNW
ATLAS 5 CENTAUR R/B 2.3 21:51:14 10° NW 21:56:57 89° NE 21:58:38 52° SE
Cosmos 1331 Rocket 4.0 21:53:49 10° NNW 21:59:00 63° ENE 21:59:36 58° ESE
Meteor 1-27 Rocket 3.9 21:53:56 10° NNW 21:59:37 68° W 22:01:24 44° SSW
Cosmos 1110 Rocket 3.9 21:55:08 10° NNW 22:00:28 73° ENE 22:01:08 64° ESE
Cosmos 1743 Rocket 4.5 22:02:46 35° WSW 22:04:06 45° WNW 22:08:21 10° N
Cosmos 1633 Rocket 4.2 22:10:51 33° NE 22:10:51 33° NE 22:13:44 10° NNE
SL-16 R/B 4.0 22:06:51 10° N 22:11:03 21° NE 22:12:56 18° ENE
Cosmos 494 Rocket 4.2 22:11:18 44° SW 22:12:48 67° WNW 22:17:56 10° NNE
Lacrosse 5 1.9 22:12:22 22° SW 22:15:40 76° NW 22:20:46 10° NE
IRIDIUM 104 4.4 22:13:32 10° N 22:18:44 71° W 22:19:25 62° SW
Cosmos 1666 Rocket 4.1 22:21:09 52° NE 22:21:09 52° NE 22:24:43 10° NNE
SL-08 ROCKET BODY 4.4 22:21:32 59° ESE 22:22:02 61° E 22:28:06 10° NNE
Nadezhda 2 Rocket 4.4 22:23:48 61° S 22:25:01 84° E 22:31:29 10° N
Cosmos 1244 Rocket 4.3 22:30:49 67° S 22:31:43 87° E 22:37:59 10° N
Terra 2.9 22:33:23 34° WSW 22:33:44 35° W 22:38:05 10° NNW
Meteor 1-25 Rocket 4.4 22:33:38 54° SW 22:34:38 65° WNW 22:40:10 10° N
COSMOS 2428 3.5 22:30:01 10° NW 22:35:16 39° WSW 22:35:52 38° WSW
CZ-4C R/B 4.1 22:29:51 10° NNW 22:36:11 34° NE 22:41:11 18° E
COBE Rocket 4.1 22:36:50 62° NNE 22:36:50 62° NNE 22:41:00 10° N
Cosmos 2084 Rocket 4.5 22:35:56 10° NW 22:38:56 42° WNW 22:38:56 42° WNW
CZ-3B R/B 2.5 22:32:48 10° NW 22:39:48 64° N 22:39:48 64° N
Meteor 2-4 Rocket 3.9 22:34:46 10° N 22:40:36 58° ENE 22:40:46 58° E
USA 229 DEB 4.4 22:36:31 10° NW 22:43:31 46° WSW 22:45:02 41° SW
USA 229 4.4 22:36:37 10° NW 22:43:37 46° WSW 22:45:07 41° SW
Cosmos 1862 Rocket 4.3 22:42:06 10° N 22:45:19 48° N 22:45:19 48° N
Cosmos 2219 3.2 22:48:17 72° ENE 22:48:17 72° ENE 22:53:40 10° NNE
Meteor 1-18 Rocket 4.1 22:43:22 10° NNW 22:49:11 83° W 22:49:18 82° SW
Meteor 1-5 Rocket 4.5 22:49:37 59° E 22:49:37 59° E 22:55:07 10° NNE
USA 267 3.7 22:43:12 10° ENE 22:48:10 44° E 22:48:10 44° E
Spot 4 4.2 22:52:09 61° NNE 22:52:09 61° NNE 22:56:19 10° N
Cosmos 1302 Rocket 4.1 22:52:48 10° NNW 22:57:32 70° NW 22:57:32 70° NW
SL-08 R/B 4.4 23:00:49 71° SW 23:01:21 77° W 23:07:31 10° N
Cosmos 1980 3.9 22:56:06 10° NNW 23:01:24 62° W 23:01:24 62° W
Cosmos 909 Rocket 4.0 23:02:47 73° SSE 23:03:12 75° ESE 23:10:49 10° NE
NOSS 2-2 (D) 4.4 23:04:00 10° NW 23:09:36 76° SW 23:09:49 75° SW
Cosmos 1269 Rocket 4.4 23:10:35 59° WNW 23:10:35 59° WNW 23:15:49 10° NNE
Okean 1-7 4.5 23:06:55 10° N 23:09:33 32° NNE 23:09:33 32° NNE
Cosmos 2297 Rocket 2.6 23:13:12 54° W 23:13:48 57° WNW 23:19:24 10° NNE
Meteor 2-17 Rocket 4.3 23:15:38 78° ENE 23:15:38 78° ENE 23:21:31 10° N
ALOS 2 3.7 23:23:09 43° N 23:23:09 43° N 23:26:10 10° N
USA 234 4.2 23:18:04 17° E 23:22:49 44° NNE 23:28:56 10° NW
Cosmos 2237 Rocket 2.9 23:17:36 10° NW 23:22:23 43° W 23:22:23 43° W
Cosmos 1709 Rocket 4.0 23:26:19 70° E 23:26:19 70° E 23:32:35 10° NNE
Cosmos 2227 Rocket 2.5 23:26:37 60° WNW 23:26:47 60° WNW 23:32:24 10° NNE
Meteor 1-13 Rocket 4.4 23:23:36 10° N 23:28:50 66° NE 23:28:50 66° NE
Cosmos 2263 Rocket 3.7 23:33:28 25° ENE 23:33:28 25° ENE 23:36:42 10° NE
Cosmos 2344 4.5 23:34:40 30° E 23:34:40 30° E 23:40:10 10° NE
Cosmos 1745 Rocket 4.2 23:35:14 60° W 23:35:37 61° W 23:41:54 10° N
ATLAS 5 CENTAUR R/B 4.3 23:37:17 10° WNW 23:40:09 17° W 23:40:09 17° W
Cosmos 44 4.0 23:47:04 10° NNW 23:51:25 53° N 23:51:25 53° N
Thor Agena Rocket 4.3 23:48:50 10° NNE 23:52:34 45° NE 23:52:34 45° NE
